SCP
-0 -0 0 1 0 0 -0 -0 -0 -0 0 0 0 0 -0 -0 -0 -0 -0 -0 -0 -0 -0 -0 0 -0 -0 -0 -0 -0 -0 -0 -0 -0 -0 -0 -0 -0 -0 -0 -0 -0 -0 -0 0 -0 -0 -0 -0
-0 0 1 0 0 0 -0 0 -0 -0 -0 0 -0 0 0 0 -0 -0 -0 -0 -0 -0 -0 -0 0 0 -0 -0 -0 -0 -0 -0 -0 -0 -0 -0 -0 -0 -0 -0 -0 -0 0 0 0 0 0 -0 -0
-0 0 0 0 0 -0 0 -0 -0 -0 0 0 0 0 0 -0 -0 -0 -0 -0 -0 -0 -0 -0 -0 0 0 -0 -0 -0 -0 -0 -0 -0 -0 -0 -0 -0 -0 -0 0 -0 0 0 0 0 -0 -0 -0
0 0 0 0 -0 -0 0 0 0 0 0 -0 0 -0 -0 -0 -0 -0 -0 -0 -0 -0 -0 -0 -0 -0 -0 -0 -0 -0 -0 -0 0 0 0 0 0 0 0 0 0 -0 -0 -0 0 0 -0 -0 -0
0 0 0 0 -0 -0 0 -0 0 0 0 0 0 -0 -0 -0 -0 -0 -0 -0 0 -0 -0 -0 -0 -0 -0 -0 -0 -0 -0 -0 -0 -0 0 0 0 0 0 0 -0 -0 -0 0 0 0 -0 -0 -0
0 0 0 -0 -0 -0 0 0 0 0 0 0 0 -0 0 -0 -0 -0 -0 -0 0 -0 -0 -0 -0 -0 -0 -0 -0 -0 -0 -0 -0 -0 0 0 0 0 0 0 0 -0 0 0 0 0 0 -0 0
0 0 -0 -0 -0 -0 0 0 -0 0 0 0 0 -0 0 -0 -0 -0 -0 0 -0 -0 -0 -0 0 -0 -0 -0 -0 -0 -0 -0 -0 -0 -0 0 0 0 0 0 0 0 0 -0 -0 -0 -0 -0 0
0 -0 -0 -0 -0 -0 0 -0 -0 -0 0 0 -0 0 0 0 0 0 -0 0 -0 -0 -0 -0 -0 0 -0 -0 -0 -0 -0 -0 -0 -0 -0 0 -0 0 0 0 0 0 0 0 -0 -0 -0 -0 0
0 0 -0 -0 -0 -0 -0 0 0 0 0 0 0 0 0 0 1 0 -0 0 0 -0 -0 -0 0 -0 0 -0 -0 0 0 0 0 0 0 -0 -0 -0 -0 0 0 0 0 0 -0 -0 -0 0 0
0 0 -0 -0 -0 -0 -0 0 0 0 -0 0 0 0 0 0 0 0 -0 -0 -0 -0 0 -0 -0 -0 -0 0 0 0 -0 0 0 0 0 -0 -0 0 0 0 0 0 0 0 -0 0 0 0 0
0 -0 0 0 -0 -0 -0 0 0 0 0 -0 0 0 0 0 0 0 -0 -0 -0 -0 -0 0 -0 -0 -0 -0 -0 0 0 0 0 0 0 -0 0 0 0 0 0 0 0 -0 0 0 0 0 0
0 0 0 -0 0 0 0 -0 0 0 -0 0 0 -0 0 0 0 0 0 -0 -0 -0 -0 -0 -0 -0 -0 -0 0 -0 0 0 0 0 0 0 0 0 0 0 0 0 0 0 0 0 0 0 0
0 -0 0 0 -0 0 0 -0 -0 -0 0 0 0 -0 0 0 0 0 0 0 -0 -0 -0 -0 -0 -0 -0 -0 -0 0 -0 -0 0 0 0 0 0 0 0 0 0 0 0 0 0 -0 0 0 0
0 0 0 -0 -0 -0 -0 -0 0 0 0 0 0 0 0 0 0 0 0 0 0 -0 -0 -0 -0 0 0 -0 0 0 0 -0 0 -0 0 -0 0 0 0 0 0 0 0 0 0 0 0 0 0
-0 -0 -0 -0 0 -0 -0 -0 0 0 0 0 0 0 0 0 0 0 0 0 0 0 0 0 0 0 0 0 -0 0 -0 -0 -0 0 0 0 0 0 0 0 0 0 0 0 1 0 1 0 0
-0 -0 -0 0 0 -0 -0 -0 0 0 0 0 0 0 1 0 0 0 0 0 0 0 0 0 -0 0 -0 0 0 0 0 -0 -0 0 0 0 0 0 0 0 0 -0 0 0 0 1 0 1 1
-0 -0 -0 0 0 0 -0 0 0 0 0 0 0 1 1 1 0 0 0 0 0 0 0 0 -0 0 0 0 0 0 0 0 0 0 0 0 0 0 1 0 0 0 0 0 0 0 0 0 0
0 -0 0 -0 0 0 -0 -0 0 0 0 0 0 0 0 0 -0 0 0 0 0 0 0 0 0 -0 0 0 -0 0 0 0 0 0 0 1 1 1 1 0 0 0 0 -0 0 0 0 0 1
0 0 0 0 0 -0 0 0 0 0 0 0 0 0 -0 -0 -0 0 0 0 1 1 0 0 0 0 0 0 0 0 0 0 0 0 0 1 1 0 0 0 0 0 0 0 0 1 1 0 0
0 -0 -0 0 0 0 0 0 -0 0 0 0 0 0 -0 -0 -0 0 0 1 1 1 0 1 0 0 0 -0 0 0 0 0 0 0 1 1 0 0 0 0 0 0 0 0 0 0 2 1 0
0 -0 -0 -0 0 -0 -0 -0 0 0 0 0 0 0 0 0 0 0 0 1 0 1 1 1 -0 -0 -0 -0 0 0 0 0 0 0 0 1 1 0 0 0 0 0 0 0 0 0 0 1 0
0 0 0 0 -0 0 0 0 0 0 0 0 0 0 0 0 1 1 0 1 1 0 0 -0 -0 -0 0 0 -0 0 0 0 0 0 0 0 0 0 0 0 0 0 0 0 0 0 0 1 1
0 0 0 -0 -0 -0 0 0 0 0 0 0 0 0 0 0 1 1 0 1 0 0 0 0 0 0 0 -0 0 0 0 0 0 0 0 0 0 0 0 0 0 0 0 0 0 0 0 0 0
0 0 0 0 0 0 0 0 0 0 0 0 0 0 0 0 0 0 0 0 0 0 0 0 0 0 0 0 0 0 0 0 0 0 0 0 0 0 0 0 0 0 0 0 0 0 0 0 0
0 -0 0 -0 -0 0 0 0 0 0 0 0 0 0 0 0 0 0 0 0 0 0 0 0 -0 0 0 0 0 0 0 0 0 0 0 0 0 -0 0 -0 0 0 0 0 0 0 0 0 0
0 -0 -0 -0 0 0 0 0 0 0 0 0 0 0 0 0 0 0 0 0 0 0 0 0 -0 -0 -0 -0 -0 0 0 0 0 0 0 0 0 0 -0 -0 -0 0 0 0 0 0 0 0 0
-0 0 -0 0 0 0 0 0 0 0 0 0 0 0 0 0 0 0 0 0 0 0 0 -0 -0 -0 -0 -0 -0 0 0 0 0 0 0 0 0 -0 -0 0 0 0 0 -0 0 0 -0 0 0
-0 0 0 0 0 0 0 0 0 0 0 0 0 0 0 0 0 0 1 1 1 0 0 0 -0 -0 -0 -0 0 0 0 0 0 0 0 0 0 -0 0 0 0 0 0 0 -0 0 -0 -0 0
0 0 0 0 0 0 0 0 -0 0 0 0 0 0 0 0 0 0 1 1 1 0 0 0 0 -0 -0 0 0 0 0 0 0 0 0 0 0 0 -0 -0 0 -0 0 0 0 -0 -0 -0 0
0 -0 0 0 0 0 0 0 -0 0 0 0 0 0 -0 -0 0 0 1 1 1 0 0 0 0 0 0 0 0 0 0 0 0 0 0 0 0 0 0 -0 -0 -0 0 0 0 -0 -0 -0 -0
Wind_Speed_500mb
10 18 16 15 3 17 33 33 34 30 26 31 24 32 25 38 27 7 41 33 38 36 41 45 40 35 31 28 25 22 19 19 17 17 17 17 16 13 14 17 17 15 10 8 6 7 5 6 7
2 18 19 18 9 23 28 31 29 25 23 8 20 16 26 28 27 34 38 39 39 37 41 41 41 34 30 26 25 24 23 21 18 17 17 15 13 11 12 12 10 9 7 7 7 5 4 5 5
15 18 22 11 22 26 25 25 24 21 12 14 16 26 31 28 22 32 35 42 38 35 36 41 39 32 28 25 22 22 22 22 19 17 16 13 12 11 11 9 9 8 6 4 5 3 2 4 8
14 20 20 20 29 30 27 22 16 23 20 21 8 23 31 27 14 23 41 38 36 34 33 38 35 30 25 23 21 20 19 19 17 15 13 12 10 10 9 8 5 5 5 5 5 4 1 2 9
21 28 4 20 31 27 24 24 11 22 16 22 18 30 28 20 25 38 39 35 35 34 28 35 32 28 23 20 19 18 18 18 17 15 15 14 11 10 7 6 4 1 4 5 4 4 1 2 8
34 23 19 18 25 29 18 22 11 21 18 11 25 29 22 21 29 30 33 31 31 31 23 32 31 25 21 20 18 17 16 15 14 13 13 13 9 7 6 4 5 4 4 5 5 4 2 2 10
34 10 20 22 27 20 19 5 21 22 12 23 6 27 21 27 27 29 30 29 28 27 25 24 28 30 26 19 17 16 14 13 11 10 11 12 10 6 5 4 2 1 5 5 6 4 6 4 10
40 18 5 10 24 27 12 18 11 15 23 15 2 13 25 31 31 30 30 28 27 27 29 24 24 23 24 22 20 16 13 11 11 11 10 10 9 4 7 3 4 4 6 6 6 5 9 10 13
22 10 12 11 20 20 15 9 10 9 20 10 11 14 33 36 35 32 32 29 28 27 25 29 25 25 22 19 22 21 19 17 16 13 12 8 6 11 9 9 12 10 9 9 9 8 11 12 13
22 5 26 19 14 14 15 10 9 13 25 16 19 25 35 38 35 31 31 32 32 30 30 23 25 26 25 20 20 20 17 14 13 13 15 11 8 16 19 13 16 14 11 11 10 10 12 17 15
14 23 9 12 13 11 13 10 5 5 11 35 25 31 37 36 32 30 26 26 27 29 33 33 25 22 23 25 17 18 20 23 25 20 21 18 24 20 11 13 10 7 14 7 20 11 12 17 17
14 9 3 14 7 7 13 15 4 7 24 12 20 35 39 35 32 30 27 26 26 27 27 27 29 26 20 22 14 17 16 17 19 22 27 26 28 29 24 12 22 17 12 15 21 11 19 18 20
20 5 5 7 7 12 12 21 11 10 11 12 24 35 38 34 31 29 27 25 25 27 28 29 31 30 28 36 20 21 21 22 17 28 29 27 23 28 30 26 22 19 25 19 19 13 15 23 22
8 13 15 15 7 15 16 19 5 17 10 17 27 31 36 33 31 31 30 27 27 28 30 29 30 29 28 23 26 22 20 22 22 23 24 30 25 31 41 44 36 37 30 26 47 32 29 22 25
20 21 27 24 7 16 22 23 11 16 12 21 27 29 35 31 29 30 30 29 28 27 30 31 30 28 26 23 23 20 20 23 21 21 25 28 29 32 36 43 41 38 31 41 41 8 14 23 23
26 30 26 21 5 8 24 21 16 12 19 24 25 29 34 32 28 26 28 28 28 26 31 31 28 28 27 25 22 19 17 19 24 24 36 29 27 30 35 31 33 29 48 47 35 27 25 30 29
29 28 28 13 3 8 14 10 17 6 15 26 24 29 33 32 29 24 25 27 29 30 30 33 32 33 32 30 25 21 19 18 18 20 23 32 32 31 37 30 31 33 43 30 37 35 38 38 23
11 23 9 11 12 8 21 10 17 10 16 25 24 29 32 34 33 28 24 24 27 30 32 33 36 33 29 30 29 22 22 23 18 22 23 27 37 37 38 41 43 46 41 43 43 40 35 32 27
18 16 17 10 6 17 21 8 19 13 14 20 25 29 32 33 32 28 25 22 22 29 31 29 27 7 31 27 19 14 14 11 14 19 22 35 35 33 38 42 44 46 49 49 44 41 43 36 29
16 18 21 12 2 17 24 17 19 11 12 13 23 30 30 33 32 28 24 20 20 24 27 26 28 23 25 23 19 14 9 9 15 21 27 28 28 32 36 42 45 48 50 51 56 51 43 42 32
23 22 15 19 4 24 24 31 29 21 13 11 17 24 31 32 34 29 23 20 17 22 22 27 27 24 22 20 13 7 4 9 7 10 16 17 24 29 26 32 39 42 48 49 50 48 49 43 29
27 15 16 17 21 20 3 21 22 21 18 24 17 21 25 29 30 29 22 20 22 22 19 18 16 16 14 14 11 5 5 5 7 9 14 17 24 23 24 25 32 37 38 42 44 47 46 43 41
9 3 13 18 22 25 21 13 8 15 9 17 8 17 21 28 32 29 24 21 26 24 19 15 14 13 13 10 4 2 2 4 3 6 14 24 24 25 22 23 27 33 34 36 35 37 47 49 48
9 16 22 22 24 23 25 11 14 11 19 11 19 3 18 29 31 28 24 25 24 25 20 22 18 16 17 13 9 10 9 4 2 11 16 18 20 25 33 22 27 25 29 36 32 34 39 48 51
18 22 18 20 22 18 16 9 16 16 10 8 9 8 17 28 31 32 30 26 28 31 29 22 21 20 19 14 8 7 5 7 11 14 15 25 23 23 33 27 21 21 18 24 29 28 32 37 45
24 28 22 27 17 6 14 5 7 13 6 10 5 6 21 30 33 34 30 27 30 33 35 28 21 20 21 15 13 10 9 3 7 13 15 16 22 25 30 26 18 14 15 13 18 23 28 30 32
28 23 30 33 34 25 25 15 17 15 7 15 13 14 22 27 30 32 29 29 33 32 33 30 30 27 22 18 14 10 4 1 8 12 15 16 23 26 29 25 19 13 10 10 11 10 14 19 21
35 12 21 18 29 29 26 6 9 16 4 32 18 18 22 26 27 29 27 29 31 34 30 30 32 29 25 20 14 9 5 8 10 11 19 19 25 25 27 26 20 14 13 9 6 10 7 8 14
16 24 25 32 20 20 17 7 29 11 8 13 21 22 24 27 28 28 28 29 31 32 31 30 29 27 25 21 16 10 6 5 7 17 16 17 23 26 29 30 23 18 15 13 14 10 10 7 4
16 24 29 19 26 20 21 14 38 16 16 7 24 26 27 29 26 28 32 33 35 33 32 28 24 22 20 19 15 11 9 1 10 12 12 13 22 25 29 28 25 23 20 19 16 14 9 10 11
Wind_Direction_500mb
28 332 300 288 178 80 76 63 52 61 71 61 44 36 42 25 37 91 134 133 136 142 151 150 149 146 142 142 146 149 155 154 154 150 146 144 141 139 144 136 143 146 139 127 131 141 139 163 148
10 293 284 283 112 81 77 69 66 55 55 72 51 68 47 57 60 122 130 138 139 145 145 155 153 151 148 149 149 153 155 161 159 159 151 147 146 148 141 152 145 162 158 151 148 147 135 158 166
346 295 274 263 57 77 87 83 76 69 55 49 90 48 33 74 93 126 135 137 138 142 145 157 155 154 151 152 151 153 155 158 158 159 149 151 151 148 139 146 167 171 186 200 164 158 140 190 192
301 260 247 74 83 82 83 79 45 120 87 59 94 90 72 86 96 136 139 139 137 140 155 157 153 154 155 154 152 154 152 150 151 152 149 152 149 147 145 160 163 187 178 199 192 175 78 181 180
257 262 348 106 96 86 81 74 38 80 68 60 61 76 94 83 107 128 138 141 140 145 170 164 158 159 159 155 153 155 155 155 156 159 159 158 153 148 146 138 133 159 169 176 209 216 143 71 172
270 9 142 100 103 111 90 106 75 72 83 111 92 93 80 118 125 136 142 143 146 151 148 168 164 165 165 160 162 162 160 158 160 164 164 158 166 166 167 162 161 191 214 217 219 235 266 118 169
262 215 57 92 100 77 84 307 67 84 87 68 91 77 112 134 135 142 148 149 152 155 156 169 169 172 172 173 175 172 174 170 165 179 181 181 189 196 199 215 202 225 269 259 241 227 230 179 163
281 106 93 69 93 92 78 87 55 19 79 94 38 107 148 145 146 147 153 153 159 164 166 171 176 178 179 186 188 188 190 194 190 202 204 203 204 230 252 271 319 274 248 267 253 227 214 200 188
255 242 102 61 50 84 97 98 99 78 117 83 70 73 130 151 150 151 157 160 166 170 185 185 183 185 189 195 202 200 200 204 214 217 219 214 200 305 305 264 260 267 266 253 254 239 206 202 206
256 226 58 39 45 29 91 2 89 207 118 128 112 118 137 148 156 156 165 173 177 180 176 202 191 193 194 191 212 200 215 206 218 219 227 164 225 219 205 242 296 277 267 270 268 258 231 215 195
304 76 110 90 38 13 339 168 122 9 178 137 154 149 151 154 159 164 170 175 182 185 189 186 205 207 201 203 225 211 220 208 201 215 231 196 212 223 230 243 267 288 288 269 251 274 242 226 212
267 58 359 44 357 328 342 334 291 49 66 78 148 159 160 162 165 169 172 177 181 185 187 191 193 199 194 209 204 236 223 229 216 239 228 221 217 230 210 212 235 255 232 217 261 233 242 210 229
263 101 257 259 286 330 320 274 343 322 72 115 143 160 167 167 168 171 173 178 182 186 190 193 196 199 196 214 213 210 219 236 234 232 255 235 232 232 231 224 245 235 221 224 239 217 233 244 238
51 270 273 272 299 257 284 291 191 114 111 136 152 165 173 170 169 170 174 178 184 188 191 194 199 201 206 204 210 222 211 233 230 236 247 264 235 262 251 250 277 243 226 217 221 205 212 227 243
262 258 243 225 283 290 303 246 151 102 135 136 157 173 174 173 172 177 179 182 185 192 193 197 197 208 206 210 213 210 218 227 235 246 236 238 247 248 262 260 262 228 232 239 265 196 213 227 233
241 241 259 145 261 125 286 107 109 157 153 145 165 173 171 177 179 183 185 187 190 195 199 201 204 208 208 205 206 195 206 222 224 237 242 250 248 249 257 256 254 247 238 244 257 273 243 254 232
219 253 210 115 122 329 280 342 124 165 154 144 168 170 174 180 183 184 189 195 199 202 205 206 208 208 207 203 189 188 205 215 230 235 232 253 250 246 254 245 256 246 235 235 240 237 247 248 245
275 203 196 263 170 235 260 266 133 158 175 160 171 176 181 189 190 187 188 199 206 209 212 218 218 208 212 205 196 181 215 208 234 238 245 249 264 259 249 245 244 243 242 225 237 230 239 249 251
319 304 301 292 111 263 275 286 282 136 199 166 175 183 193 197 194 192 195 202 212 213 214 222 232 310 304 257 193 207 212 246 252 256 252 253 260 259 258 256 253 247 242 236 233 238 238 238 241
258 261 252 237 67 260 274 287 295 153 228 208 188 182 203 194 184 192 195 204 216 212 209 215 224 239 268 234 207 202 215 236 253 256 279 283 284 276 267 261 256 251 247 243 238 233 231 231 228
242 261 270 277 225 253 254 259 242 182 182 210 230 202 197 205 189 196 205 206 200 200 195 208 211 222 230 213 213 195 232 295 295 294 300 294 290 280 264 269 264 258 250 248 245 238 234 230 220
267 170 278 272 268 280 164 294 174 167 194 178 207 211 207 198 191 192 199 194 184 181 184 174 177 187 198 208 206 212 271 252 283 340 291 313 326 307 287 278 266 262 258 248 244 241 236 229 218
291 352 255 273 272 267 269 240 248 177 212 133 120 185 198 180 186 186 191 188 184 190 181 187 170 169 191 208 200 114 160 327 310 349 349 348 342 325 305 303 287 269 260 257 246 232 236 235 227
295 254 241 252 255 257 239 271 287 54 42 26 140 147 181 175 177 181 180 171 170 172 180 173 171 197 189 177 184 191 195 170 157 5 11 352 339 331 328 298 305 287 272 250 247 245 238 233 230
212 248 245 222 221 242 103 247 309 359 89 35 359 123 170 169 173 176 175 176 173 173 166 166 162 170 172 165 161 160 128 80 4 29 354 15 340 338 336 334 333 322 302 251 237 237 239 235 234
219 257 268 292 285 53 165 279 77 52 336 143 155 179 158 167 175 175 180 183 173 175 177 178 182 181 161 168 164 156 125 37 21 355 24 350 348 346 344 346 345 333 323 295 259 241 238 238 249
248 244 259 276 273 267 282 256 184 136 207 144 120 134 155 165 172 176 174 178 178 173 175 186 193 183 167 175 172 158 166 50 15 17 36 9 349 358 356 358 8 357 316 312 298 255 244 241 235
256 285 243 233 265 281 265 272 210 147 161 121 136 158 158 166 164 166 169 170 171 178 181 175 180 173 174 165 163 153 80 46 35 18 25 358 9 9 11 13 21 20 20 357 300 289 265 251 242
190 238 254 284 286 282 277 156 1 357 93 102 133 155 166 168 166 164 164 163 162 163 166 169 175 173 166 158 159 138 111 40 47 38 26 2 18 19 26 26 31 39 36 51 75 92 91 81 81
290 236 221 246 231 260 276 284 194 149 138 143 140 154 162 161 155 161 162 159 157 161 164 166 175 174 166 155 152 150 111 263 53 55 30 21 32 28 37 35 33 39 46 52 61 74 86 102 102
Wind_Speed_850mb
10 18 16 15 3 17 33 33 34 30 26 31 24 32 25 38 27 7 41 33 38 36 41 45 40 35 31 28 25 22 19 19 17 17 17 17 16 13 14 17 17 15 10 8 6 7 5 6 7
2 18 19 18 9 23 28 31 29 25 23 8 20 16 26 28 27 34 38 39 39 37 41 41 41 34 30 26 25 24 23 21 18 17 17 15 13 11 12 12 10 9 7 7 7 5 4 5 5
15 18 22 11 22 26 25 25 24 21 12 14 16 26 31 28 22 32 35 42 38 35 36 41 39 32 28 25 22 22 22 22 19 17 16 13 12 11 11 9 9 8 6 4 5 3 2 4 8
14 20 20 20 29 30 27 22 16 23 20 21 8 23 31 27 14 23 41 38 36 34 33 38 35 30 25 23 21 20 19 19 17 15 13 12 10 10 9 8 5 5 5 5 5 4 1 2 9
21 28 4 20 31 27 24 24 11 22 16 22 18 30 28 20 25 38 39 35 35 34 28 35 32 28 23 20 19 18 18 18 17 15 15 14 11 10 7 6 4 1 4 5 4 4 1 2 8
34 23 19 18 25 29 18 22 11 21 18 11 25 29 22 21 29 30 33 31 31 31 23 32 31 25 21 20 18 17 16 15 14 13 13 13 9 7 6 4 5 4 4 5 5 4 2 2 10
34 10 20 22 27 20 19 5 21 22 12 23 6 27 21 27 27 29 30 29 28 27 25 24 28 30 26 19 17 16 14 13 11 10 11 12 10 6 5 4 2 1 5 5 6 4 6 4 10
40 18 5 10 24 27 12 18 11 15 23 15 2 13 25 31 31 30 30 28 27 27 29 24 24 23 24 22 20 16 13 11 11 11 10 10 9 4 7 3 4 4 6 6 6 5 9 10 13
22 10 12 11 20 20 15 9 10 9 20 10 11 14 33 36 35 32 32 29 28 27 25 29 25 25 22 19 22 21 19 17 16 13 12 8 6 11 9 9 12 10 9 9 9 8 11 12 13
22 5 26 19 14 14 15 10 9 13 25 16 19 25 35 38 35 31 31 32 32 30 30 23 25 26 25 20 20 20 17 14 13 13 15 11 8 16 19 13 16 14 11 11 10 10 12 17 15
14 23 9 12 13 11 13 10 5 5 11 35 25 31 37 36 32 30 26 26 27 29 33 33 25 22 23 25 17 18 20 23 25 20 21 18 24 20 11 13 10 7 14 7 20 11 12 17 17
14 9 3 14 7 7 13 15 4 7 24 12 20 35 39 35 32 30 27 26 26 27 27 27 29 26 20 22 14 17 16 17 19 22 27 26 28 29 24 12 22 17 12 15 21 11 19 18 20
20 5 5 7 7 12 12 21 11 10 11 12 24 35 38 34 31 29 27 25 25 27 28 29 31 30 28 36 20 21 21 22 17 28 29 27 23 28 30 26 22 19 25 19 19 13 15 23 22
8 13 15 15 7 15 16 19 5 17 10 17 27 31 36 33 31 31 30 27 27 28 30 29 30 29 28 23 26 22 20 22 22 23 24 30 25 31 41 44 36 37 30 26 47 32 29 22 25
20 21 27 24 7 16 22 23 11 16 12 21 27 29 35 31 29 30 30 29 28 27 30 31 30 28 26 23 23 20 20 23 21 21 25 28 29 32 36 43 41 38 31 41 41 8 14 23 23
26 30 26 21 5 8 24 21 16 12 19 24 25 29 34 32 28 26 28 28 28 26 31 31 28 28 27 25 22 19 17 19 24 24 36 29 27 30 35 31 33 29 48 47 35 27 25 30 29
29 28 28 13 3 8 14 10 17 6 15 26 24 29 33 32 29 24 25 27 29 30 30 33 32 33 32 30 25 21 19 18 18 20 23 32 32 31 37 30 31 33 43 30 37 35 38 38 23
11 23 9 11 12 8 21 10 17 10 16 25 24 29 32 34 33 28 24 24 27 30 32 33 36 33 29 30 29 22 22 23 18 22 23 27 37 37 38 41 43 46 41 43 43 40 35 32 27
18 16 17 10 6 17 21 8 19 13 14 20 25 29 32 33 32 28 25 22 22 29 31 29 27 7 31 27 19 14 14 11 14 19 22 35 35 33 38 42 44 46 49 49 44 41 43 36 29
16 18 21 12 2 17 24 17 19 11 12 13 23 30 30 33 32 28 24 20 20 24 27 26 28 23 25 23 19 14 9 9 15 21 27 28 28 32 36 42 45 48 50 51 56 51 43 42 32
23 22 15 19 4 24 24 31 29 21 13 11 17 24 31 32 34 29 23 20 17 22 22 27 27 24 22 20 13 7 4 9 7 10 16 17 24 29 26 32 39 42 48 49 50 48 49 43 29
27 15 16 17 21 20 3 21 22 21 18 24 17 21 25 29 30 29 22 20 22 22 19 18 16 16 14 14 11 5 5 5 7 9 14 17 24 23 24 25 32 37 38 42 44 47 46 43 41
9 3 13 18 22 25 21 13 8 15 9 17 8 17 21 28 32 29 24 21 26 24 19 15 14 13 13 10 4 2 2 4 3 6 14 24 24 25 22 23 27 33 34 36 35 37 47 49 48
9 16 22 22 24 23 25 11 14 11 19 11 19 3 18 29 31 28 24 25 24 25 20 22 18 16 17 13 9 10 9 4 2 11 16 18 20 25 33 22 27 25 29 36 32 34 39 48 51
18 22 18 20 22 18 16 9 16 16 10 8 9 8 17 28 31 32 30 26 28 31 29 22 21 20 19 14 8 7 5 7 11 14 15 25 23 23 33 27 21 21 18 24 29 28 32 37 45
24 28 22 27 17 6 14 5 7 13 6 10 5 6 21 30 33 34 30 27 30 33 35 28 21 20 21 15 13 10 9 3 7 13 15 16 22 25 30 26 18 14 15 13 18 23 28 30 32
28 23 30 33 34 25 25 15 17 15 7 15 13 14 22 27 30 32 29 29 33 32 33 30 30 27 22 18 14 10 4 1 8 12 15 16 23 26 29 25 19 13 10 10 11 10 14 19 21
35 12 21 18 29 29 26 6 9 16 4 32 18 18 22 26 27 29 27 29 31 34 30 30 32 29 25 20 14 9 5 8 10 11 19 19 25 25 27 26 20 14 13 9 6 10 7 8 14
16 24 25 32 20 20 17 7 29 11 8 13 21 22 24 27 28 28 28 29 31 32 31 30 29 27 25 21 16 10 6 5 7 17 16 17 23 26 29 30 23 18 15 13 14 10 10 7 4
16 24 29 19 26 20 21 14 38 16 16 7 24 26 27 29 26 28 32 33 35 33 32 28 24 22 20 19 15 11 9 1 10 12 12 13 22 25 29 28 25 23 20 19 16 14 9 10 11
Wind_Direction_850mb
28 332 300 288 178 80 76 63 52 61 71 61 44 36 42 25 37 91 134 133 136 142 151 150 149 146 142 142 146 149 155 154 154 150 146 144 141 139 144 136 143 146 139 127 131 141 139 163 148
10 293 284 283 112 81 77 69 66 55 55 72 51 68 47 57 60 122 130 138 139 145 145 155 153 151 148 149 149 153 155 161 159 159 151 147 146 148 141 152 145 162 158 151 148 147 135 158 166
346 295 274 263 57 77 87 83 76 69 55 49 90 48 33 74 93 126 135 137 138 142 145 157 155 154 151 152 151 153 155 158 158 159 149 151 151 148 139 146 167 171 186 200 164 158 140 190 192
301 260 247 74 83 82 83 79 45 120 87 59 94 90 72 86 96 136 139 139 137 140 155 157 153 154 155 154 152 154 152 150 151 152 149 152 149 147 145 160 163 187 178 199 192 175 78 181 180
257 262 348 106 96 86 81 74 38 80 68 60 61 76 94 83 107 128 138 141 140 145 170 164 158 159 159 155 153 155 155 155 156 159 159 158 153 148 146 138 133 159 169 176 209 216 143 71 172
270 9 142 100 103 111 90 106 75 72 83 111 92 93 80 118 125 136 142 143 146 151 148 168 164 165 165 160 162 162 160 158 160 164 164 158 166 166 167 162 161 191 214 217 219 235 266 118 169
262 215 57 92 100 77 84 307 67 84 87 68 91 77 112 134 135 142 148 149 152 155 156 169 169 172 172 173 175 172 174 170 165 179 181 181 189 196 199 215 202 225 269 259 241 227 230 179 163
281 106 93 69 93 92 78 87 55 19 79 94 38 107 148 145 146 147 153 153 159 164 166 171 176 178 179 186 188 188 190 194 190 202 204 203 204 230 252 271 319 274 248 267 253 227 214 200 188
255 242 102 61 50 84 97 98 99 78 117 83 70 73 130 151 150 151 157 160 166 170 185 185 183 185 189 195 202 200 200 204 214 217 219 214 200 305 305 264 260 267 266 253 254 239 206 202 206
256 226 58 39 45 29 91 2 89 207 118 128 112 118 137 148 156 156 165 173 177 180 176 202 191 193 194 191 212 200 215 206 218 219 227 164 225 219 205 242 296 277 267 270 268 258 231 215 195
304 76 110 90 38 13 339 168 122 9 178 137 154 149 151 154 159 164 170 175 182 185 189 186 205 207 201 203 225 211 220 208 201 215 231 196 212 223 230 243 267 288 288 269 251 274 242 226 212
267 58 359 44 357 328 342 334 291 49 66 78 148 159 160 162 165 169 172 177 181 185 187 191 193 199 194 209 204 236 223 229 216 239 228 221 217 230 210 212 235 255 232 217 261 233 242 210 229
263 101 257 259 286 330 320 274 343 322 72 115 143 160 167 167 168 171 173 178 182 186 190 193 196 199 196 214 213 210 219 236 234 232 255 235 232 232 231 224 245 235 221 224 239 217 233 244 238
51 270 273 272 299 257 284 291 191 114 111 136 152 165 173 170 169 170 174 178 184 188 191 194 199 201 206 204 210 222 211 233 230 236 247 264 235 262 251 250 277 243 226 217 221 205 212 227 243
262 258 243 225 283 290 303 246 151 102 135 136 157 173 174 173 172 177 179 182 185 192 193 197 197 208 206 210 213 210 218 227 235 246 236 238 247 248 262 260 262 228 232 239 265 196 213 227 233
241 241 259 145 261 125 286 107 109 157 153 145 165 173 171 177 179 183 185 187 190 195 199 201 204 208 208 205 206 195 206 222 224 237 242 250 248 249 257 256 254 247 238 244 257 273 243 254 232
219 253 210 115 122 329 280 342 124 165 154 144 168 170 174 180 183 184 189 195 199 202 205 206 208 208 207 203 189 188 205 215 230 235 232 253 250 246 254 245 256 246 235 235 240 237 247 248 245
275 203 196 263 170 235 260 266 133 158 175 160 171 176 181 189 190 187 188 199 206 209 212 218 218 208 212 205 196 181 215 208 234 238 245 249 264 259 249 245 244 243 242 225 237 230 239 249 251
319 304 301 292 111 263 275 286 282 136 199 166 175 183 193 197 194 192 195 202 212 213 214 222 232 310 304 257 193 207 212 246 252 256 252 253 260 259 258 256 253 247 242 236 233 238 238 238 241
258 261 252 237 67 260 274 287 295 153 228 208 188 182 203 194 184 192 195 204 216 212 209 215 224 239 268 234 207 202 215 236 253 256 279 283 284 276 267 261 256 251 247 243 238 233 231 231 228
242 261 270 277 225 253 254 259 242 182 182 210 230 202 197 205 189 196 205 206 200 200 195 208 211 222 230 213 213 195 232 295 295 294 300 294 290 280 264 269 264 258 250 248 245 238 234 230 220
267 170 278 272 268 280 164 294 174 167 194 178 207 211 207 198 191 192 199 194 184 181 184 174 177 187 198 208 206 212 271 252 283 340 291 313 326 307 287 278 266 262 258 248 244 241 236 229 218
291 352 255 273 272 267 269 240 248 177 212 133 120 185 198 180 186 186 191 188 184 190 181 187 170 169 191 208 200 114 160 327 310 349 349 348 342 325 305 303 287 269 260 257 246 232 236 235 227
295 254 241 252 255 257 239 271 287 54 42 26 140 147 181 175 177 181 180 171 170 172 180 173 171 197 189 177 184 191 195 170 157 5 11 352 339 331 328 298 305 287 272 250 247 245 238 233 230
212 248 245 222 221 242 103 247 309 359 89 35 359 123 170 169 173 176 175 176 173 173 166 166 162 170 172 165 161 160 128 80 4 29 354 15 340 338 336 334 333 322 302 251 237 237 239 235 234
219 257 268 292 285 53 165 279 77 52 336 143 155 179 158 167 175 175 180 183 173 175 177 178 182 181 161 168 164 156 125 37 21 355 24 350 348 346 344 346 345 333 323 295 259 241 238 238 249
248 244 259 276 273 267 282 256 184 136 207 144 120 134 155 165 172 176 174 178 178 173 175 186 193 183 167 175 172 158 166 50 15 17 36 9 349 358 356 358 8 357 316 312 298 255 244 241 235
256 285 243 233 265 281 265 272 210 147 161 121 136 158 158 166 164 166 169 170 171 178 181 175 180 173 174 165 163 153 80 46 35 18 25 358 9 9 11 13 21 20 20 357 300 289 265 251 242
190 238 254 284 286 282 277 156 1 357 93 102 133 155 166 168 166 164 164 163 162 163 166 169 175 173 166 158 159 138 111 40 47 38 26 2 18 19 26 26 31 39 36 51 75 92 91 81 81
290 236 221 246 231 260 276 284 194 149 138 143 140 154 162 161 155 161 162 159 157 161 164 166 175 174 166 155 152 150 111 263 53 55 30 21 32 28 37 35 33 39 46 52 61 74 86 102 102